Stations météo

Publicité
Orange, France (7579): Température de l'air & dewpoint: 11.07.2018 06:00:00 - 17.07.2018 06:00:00 (CEST)Orange, France (7579): Température de l'air 5cm: 11.07.2018 06:00:00 - 17.07.2018 06:00:00 (CEST)Orange, France (7579): Vitesse du vent & gusts: 11.07.2018 06:00:00 - 17.07.2018 06:00:00 (CEST)Orange, France (7579): Direction du vent: 11.07.2018 06:00:00 - 17.07.2018 06:00:00 (CEST)Orange, France (7579): reduced air pressure: 11.07.2018 06:00:00 - 17.07.2018 06:00:00 (CEST)Orange, France (7579): visibility: 11.07.2018 06:00:00 - 17.07.2018 06:00:00 (CEST)Orange, France (7579): Quantités de précipitations: 11.07.2018 06:00:00 - 17.07.2018 06:00:00 (CEST)
Date & Time tt [°C] td [°C] tt 5cm [°C] ff [km/h] ff [knt] fx [km/h] fx [knt] dd ppp [hPa] vv [km] rr [mm]
17.07.2018 06:00:00 21,3 13,2 19,0 22 12 31 17 NW 1014,6 44 0,0
17.07.2018 05:00:00 22,4 12,6 19,9 25 14 36 20 NNW 1014,2 48 0,0
17.07.2018 04:00:00 22,1 12,6 18,5 16 8 24 13 NNW 1014,2 49 0,0
17.07.2018 03:00:00 20,9 12,8 19,5 16 9 28 15 NW 1013,9 50 0,0
17.07.2018 02:00:00 21,5 12,6 18,1 12 7 23 12 NW 1013,8 54 0,0
17.07.2018 01:00:00 21,2 12,6 17,5 6 3 17 9 WNW 1013,6 53 0,0
17.07.2018 00:00:00 22,8 12,4 20,9 13 7 27 14 NW 1013,5 53 0,0
16.07.2018 23:00:00 23,8 12,4 22,3 14 8 26 14 NW 1012,6 54 0,0
16.07.2018 22:00:00 24,6 12,9 23,2 18 10 31 17 NW 1011,3 54 0,0
16.07.2018 21:00:00 25,0 15,6 24,1 16 8 27 15 WNW 1010,3 44 0,0
16.07.2018 20:00:00 26,5 16,1 26,7 13 7 24 13 WNW 1009,7 49 0,0
16.07.2018 19:00:00 28,1 17,6 33,1 12 6 25 14 NW 1009,2 27 0,0
16.07.2018 18:00:00 27,5 17,4 29,4 16 8 32 17 NW 1008,9 35 0,0
16.07.2018 17:00:00 26,3 17,9 26,9 19 11 34 18 NW 1008,6 28 0,0
16.07.2018 16:00:00 24,1 18,3 26,7 19 10 28 15 NW 1009,1 35 0,0
16.07.2018 15:00:00 23,7 18,3 22,4 14 8 24 13 NW 1010,0 20 0,2
16.07.2018 14:00:00 23,9 17,6 25,5 11 6 24 13 NW 1010,4 42 0,0
16.07.2018 13:00:00 23,7 19,2 21,7 15 8 25 13 NNW 1010,4 40 0,0
16.07.2018 12:00:00 20,7 18,6 19,1 8 5 32 17 NE 1010,6 20 2,0
16.07.2018 11:00:00 20,7 17,1 19,1 5 3 26 14 SW 1011,6 10 0,2
16.07.2018 10:00:00 22,3 16,6 22,5 4 2 13 7 SSW 1010,8 35 0,0
16.07.2018 09:00:00 22,2 15,8 22,8 9 5 12 7 NW 1010,5 39 0,0
16.07.2018 08:00:00 21,1 16,1 18,9 3 2 10 5 NW 1011,0 35 0,0
16.07.2018 07:00:00 19,0 15,9 16,4 0 0 9 5 N 1011,7 30 0,0
16.07.2018 06:00:00 18,5 15,4 16,2 5 3 9 5 NW 1011,7 33 0,0
16.07.2018 05:00:00 19,0 15,3 16,8 4 2 15 8 E 1011,6 36 0,0
16.07.2018 04:00:00 20,0 15,6 18,0 2 1 9 5 NW 1013,2 35 0,0
16.07.2018 03:00:00 20,8 16,0 19,3 5 3 9 5 W 1013,7 40 0,0
16.07.2018 02:00:00 21,5 15,6 18,4 10 6 15 8 NW 1013,6 40 0,0
16.07.2018 01:00:00 22,3 16,1 18,9 7 4 9 5 WNW 1013,8 36 0,0
16.07.2018 00:00:00 23,6 15,4 19,9 4 2 17 9 NW 1013,7 40 0,0
15.07.2018 23:00:00 23,7 16,0 21,7 10 5 14 8 NNE 1013,7 35 0,0
15.07.2018 22:00:00 26,0 14,1 23,3 7 4 16 9 SSW 1012,7 35 0,0
15.07.2018 21:00:00 27,9 14,2 26,4 10 5 27 15 SSW 1012,0 39 0,0
15.07.2018 20:00:00 30,5 15,0 32,3 18 10 34 19 SSW 1011,5 35 0,0
15.07.2018 19:00:00 32,8 16,2 36,5 17 9 29 16 S 1011,0 20 0,0
15.07.2018 18:00:00 34,2 12,5 40,7 13 7 26 14 S 1011,2 48 0,0
15.07.2018 17:00:00 34,4 12,7 42,9 9 5 22 12 S 1011,8 37 0,0
15.07.2018 16:00:00 34,2 13,6 41,7 8 4 20 11 W 1012,4 20 0,0
15.07.2018 15:00:00 33,4 12,9 42,1 11 6 26 14 W 1013,2 20 0,0
15.07.2018 14:00:00 32,0 16,3 41,5 4 2 12 7 SE 1013,9 29 0,0
15.07.2018 13:00:00 30,5 16,9 39,5 6 3 14 8 NNW 1014,6 11 0,0
15.07.2018 12:00:00 29,1 16,3 37,6 3 2 13 7 NW 1014,9 42 0,0
15.07.2018 11:00:00 27,1 17,3 27,1 7 4 20 11 N 1015,0 45 0,0
15.07.2018 10:00:00 25,1 17,6 24,1 13 7 23 12 NNW 1014,7 35 0,0
15.07.2018 09:00:00 23,6 16,9 19,6 9 5 30 16 NW 1015,0 45 0,0
15.07.2018 08:00:00 20,1 16,1 18,3 25 13 44 24 ENE 1014,7 45 0,0
15.07.2018 07:00:00 19,6 16,4 18,1 14 8 46 25 NNE 1016,4 39 1,0
15.07.2018 06:00:00 19,7 16,0 16,2 11 6 16 9 WSW 1016,2 32 0,0
15.07.2018 05:00:00 18,1 14,4 15,6 3 1 6 3 NNW 1014,8 34 0,0
15.07.2018 04:00:00 19,1 14,6 15,8 0 0 6 4 N 1014,8 36 0,0
15.07.2018 03:00:00 20,2 14,3 16,8 3 1 6 3 NNE 1014,9 42 0,0
15.07.2018 02:00:00 20,9 14,5 17,9 6 4 8 5 NNW 1015,1 41 0,0
15.07.2018 01:00:00 22,4 14,3 19,2 6 4 19 10 NNW 1015,3 40 0,0
15.07.2018 00:00:00 24,1 14,8 21,1 13 7 21 11 NNE 1015,3 40 0,0
14.07.2018 23:00:00 24,6 16,6 21,3 4 2 14 8 S 1015,1 30 0,0
14.07.2018 22:00:00 26,2 16,7 24,3 8 4 17 9 SSE 1014,3 32 0,0
14.07.2018 21:00:00 28,4 18,2 27,5 7 4 23 12 SSW 1013,6 30 0,0
14.07.2018 20:00:00 31,0 18,4 32,7 15 8 26 14 SW 1013,3 25 0,0
14.07.2018 19:00:00 34,0 14,0 37,4 6 3 11 6 NW 1013,3 25 0,0
14.07.2018 18:00:00 34,5 14,4 38,9 5 3 17 9 WSW 1013,7 20 0,0
14.07.2018 17:00:00 33,4 14,9 39,9 9 5 18 10 NW 1014,2 31 0,0
14.07.2018 16:00:00 33,9 13,9 40,4 5 3 11 6 WSW 1014,4 30 0,0
14.07.2018 15:00:00 33,4 14,0 39,9 4 2 16 9 NNW 1014,9 34 0,0
14.07.2018 14:00:00 33,0 13,1 41,6 9 5 19 10 NNW 1015,4 22 0,0
14.07.2018 13:00:00 31,7 15,2 34,7 10 6 20 11 WNW 1015,9 31 0,0
14.07.2018 12:00:00 29,5 17,3 33,8 10 5 16 8 WNW 1016,1 25 0,0
14.07.2018 11:00:00 29,2 17,1 29,4 6 3 13 7 N 1016,0 25 0,0
14.07.2018 10:00:00 25,9 16,7 26,0 6 3 14 8 WNW 1016,4 26 0,0
14.07.2018 09:00:00 24,4 15,6 23,5 9 5 15 8 N 1016,4 32 0,0
14.07.2018 08:00:00 21,0 16,2 20,2 7 4 18 10 NNW 1016,5 22 0,0
14.07.2018 07:00:00 20,5 15,5 19,1 10 5 24 13 W 1016,7 26 0,0
14.07.2018 06:00:00 20,5 14,2 18,2 7 4 19 10 WNW 1016,6 36 0,0
14.07.2018 05:00:00 19,8 15,2 18,2 8 4 12 7 N 1017,9 33 0,0
14.07.2018 04:00:00 20,4 14,1 16,9 3 1 7 4 WNW 1018,0 35 0,0
14.07.2018 03:00:00 19,3 13,2 16,3 8 5 11 6 NE 1017,2 40 0,0
14.07.2018 02:00:00 21,4 13,6 16,9 6 3 11 6 S 1017,5 38 0,0
14.07.2018 01:00:00 21,6 13,8 18,7 8 5 12 6 SE 1017,2 38 0,0
14.07.2018 00:00:00 22,2 13,3 18,1 8 4 14 8 ESE 1017,2 39 0,0
13.07.2018 23:00:00 24,4 13,9 21,5 11 6 14 8 SE 1016,9 36 0,0
13.07.2018 22:00:00 26,3 13,4 22,8 7 4 13 7 SSE 1016,2 47 0,0
13.07.2018 21:00:00 28,5 13,2 26,3 5 3 18 10 S 1015,5 52 0,0
13.07.2018 20:00:00 31,0 13,3 32,9 15 8 29 15 SW 1015,1 43 0,0
13.07.2018 19:00:00 33,0 13,1 36,5 16 9 24 13 SSW 1014,9 40 0,0
13.07.2018 18:00:00 34,3 11,4 41,9 9 5 20 11 SSE 1014,9 34 0,0
13.07.2018 17:00:00 34,8 11,9 43,6 3 2 22 12 SSE 1015,3 19 0,0
13.07.2018 16:00:00 34,5 11,6 41,2 5 3 16 9 W 1015,5 18 0,0
13.07.2018 15:00:00 33,6 12,6 43,2 5 3 16 9 ESE 1016,2 34 0,0
13.07.2018 14:00:00 32,9 11,4 42,3 3 2 16 8 NNW 1016,6 19 0,0
13.07.2018 13:00:00 31,6 11,9 39,7 4 2 18 10 S 1017,1 20 0,0
13.07.2018 12:00:00 29,9 12,3 38,4 6 3 16 8 NW 1017,5 43 0,0
13.07.2018 11:00:00 28,4 11,0 35,1 5 3 18 10 N 1017,3 48 0,0
13.07.2018 10:00:00 25,6 12,1 29,5 8 5 19 10 NNW 1017,6 24 0,0
13.07.2018 09:00:00 23,3 11,7 21,7 13 7 21 11 NNW 1017,7 15 0,0
13.07.2018 08:00:00 19,8 11,8 16,3 6 3 13 7 NW 1017,6 15 0,0
13.07.2018 07:00:00 16,6 11,1 11,8 5 3 8 4 NNW 1017,3 11 0,0
13.07.2018 06:00:00 15,5 9,8 11,9 5 3 9 5 NW 1017,3 39 0,0
13.07.2018 05:00:00 14,7 9,9 12,0 0 0 9 5 N 1017,0 40 0,0
13.07.2018 04:00:00 15,8 9,9 12,4 5 3 8 5 NE 1016,9 42 0,0
13.07.2018 03:00:00 16,4 9,3 12,5 2 1 5 3 N 1016,9 48 0,0
13.07.2018 02:00:00 18,4 9,5 13,7 0 0 9 5 N 1016,7 52 0,0
13.07.2018 01:00:00 18,6 8,8 15,4 6 3 10 5 E 1016,6 57 0,0
13.07.2018 00:00:00 21,8 8,3 16,0 3 1 16 9 NW 1016,5 57 0,0
12.07.2018 23:00:00 23,1 7,2 18,3 4 2 17 9 NNW 1016,3 59 0,0
12.07.2018 22:00:00 23,9 7,1 20,7 9 5 23 12 NW 1015,5 60 0,0
12.07.2018 21:00:00 26,0 7,6 24,8 14 7 22 12 N 1014,9 58 0,0
12.07.2018 20:00:00 28,5 7,1 31,8 16 8 22 12 NNW 1014,7 28 0,0
12.07.2018 19:00:00 29,9 7,7 36,6 14 8 26 14 NNW 1014,4 42 0,0
12.07.2018 18:00:00 30,5 9,4 39,2 16 9 28 15 N 1014,2 33 0,0
12.07.2018 17:00:00 30,3 8,7 41,4 16 9 28 15 NNW 1014,4 32 0,0
12.07.2018 16:00:00 30,1 9,6 39,8 16 9 27 15 N 1014,9 31 0,0
12.07.2018 15:00:00 29,2 9,8 35,6 11 6 26 14 NNW 1015,1 33 0,0
12.07.2018 14:00:00 28,6 10,7 32,7 13 7 27 15 NW 1015,3 57 0,0
12.07.2018 13:00:00 28,7 11,3 38,4 14 8 28 15 NW 1015,3 28 0,0
12.07.2018 12:00:00 27,1 10,7 34,7 16 9 29 15 N 1015,4 26 0,0
12.07.2018 11:00:00 25,1 10,5 30,0 19 11 34 18 N 1015,3 22 0,0
12.07.2018 10:00:00 23,7 10,4 26,1 22 12 37 20 N 1015,3 22 0,0
12.07.2018 09:00:00 21,9 10,1 21,0 26 14 39 21 N 1015,0 20 0,0
12.07.2018 08:00:00 20,1 9,6 18,6 23 12 38 20 NNW 1014,9 26 0,0
12.07.2018 07:00:00 19,0 9,5 17,1 20 11 36 19 N 1014,5 23 0,0
12.07.2018 06:00:00 18,7 9,2 16,4 21 11 31 17 NNW 1014,2 47 0,0
12.07.2018 05:00:00 19,1 9,3 17,4 18 10 39 21 N 1013,9 48 0,0
12.07.2018 04:00:00 19,3 9,5 17,6 18 10 36 19 NNW 1013,7 50 0,0
12.07.2018 03:00:00 20,0 9,5 18,8 26 14 39 21 N 1013,5 46 0,0
12.07.2018 02:00:00 20,5 9,7 19,0 23 12 39 21 NNW 1014,0 53 0,0
12.07.2018 01:00:00 21,3 9,5 19,9 24 13 44 24 N 1014,2 55 0,0
12.07.2018 00:00:00 21,8 9,3 20,5 23 12 43 23 N 1014,0 55 0,0
11.07.2018 23:00:00 22,3 9,1 20,9 23 13 45 25 NNW 1013,7 59 0,0
11.07.2018 22:00:00 23,4 9,0 21,8 26 14 45 24 NNW 1013,2 58 0,0
11.07.2018 21:00:00 24,5 10,0 23,9 34 18 57 31 NNW 1012,5 26 0,0
11.07.2018 20:00:00 26,4 9,3 29,4 27 14 62 33 N 1011,9 24 0,0
11.07.2018 19:00:00 27,2 8,1 31,7 37 20 54 29 N 1012,1 12 0,0
11.07.2018 18:00:00 28,0 7,8 34,5 29 16 59 32 N 1011,9 10 0,0
11.07.2018 17:00:00 27,8 6,5 35,8 41 22 58 31 N 1012,0 10 0,0
11.07.2018 16:00:00 28,0 7,3 34,5 36 20 59 32 N 1012,1 11 0,0
11.07.2018 15:00:00 27,2 7,1 35,0 35 19 61 33 N 1012,2 11 0,0
11.07.2018 14:00:00 26,2 8,2 33,6 39 21 66 36 NNW 1012,3 10 0,0
11.07.2018 13:00:00 25,1 8,6 31,6 37 20 61 33 N 1012,7 10 0,0
11.07.2018 12:00:00 24,2 9,0 29,6 46 25 69 37 N 1013,1 9 0,0
11.07.2018 11:00:00 23,8 9,0 26,8 38 20 69 37 N 1013,2 8 0,0
11.07.2018 10:00:00 22,0 8,1 23,6 42 23 64 35 NNW 1013,4 6 0,0
11.07.2018 09:00:00 20,9 7,8 21,3 44 24 64 35 NNW 1013,3 7 0,0
11.07.2018 08:00:00 19,9 8,2 18,9 30 16 50 27 N 1013,3 6 0,0
11.07.2018 07:00:00 19,3 8,3 18,6 32 17 56 31 NNW 1013,1 7 0,0
11.07.2018 06:00:00 20,0 9,0 18,9 35 19 54 29 NNW 1013,2 48 0,0

tt = Température de l'air
td = dewpoint
tt 5cm = Température de l'air 5cm
ff = Vitesse du vent
fx = gusts
dd = Direction du vent
ppp = reduced air pressure
vv = visibility
rr = Quantités de précipitations

stations d'obs. à proximité